Tracking 30995 objects as of 7-Jul-2025
HD Live streaming from Space Station
objects crossing your sky now

COSMOS 2251 DEB

Track COSMOS 2251 DEB now!
10-day predictions


NORAD ID: 37996
Int'l Code: 1993-036BQX
Perigee: 707.1 km
Apogee: 1,048.2 km
Inclination: 74.1 °
Period: 102.4 minutes
Semi major axis: 7248 km
RCS: 0.0038 m2 (small)
Launch date: June 16, 1993
Source: Commonwealth of Independent States (former USSR) (CIS)
Launch site: PLESETSK MISSILE AND SPACE COMPLEX (PKMTR)

Note: This is SATELLITE DEBRIS
Your satellite tracking list
Your tracking list is empty




NASA's NSSDC Master Catalog

Two Line Element Set (TLE):
1 37996U 93036BQX 25186.25748990  .00005424  00000-0  25494-2 0  9992
2 37996  74.0638 124.4450 0235280 273.7405  83.6859 14.06741880538769
Source of the keplerian elements: AFSPC